Flag for Italy Weather past 2 weeks in Firenze, Italy

50 °F


Feels Like: 50 °F
Forecast: 45 / 57 °F
Wind: 1 mph from North

Location: Florence / Peretola

Current Time: Nov 30, 2015 at 6:17:38 PM

Latest Report: Nov 30, 2015 at 5:20 PM

Visibility: 2 mi

Pressure: 30.30 "Hg

Humidity: 88%

Dew point: 46 °F

Location of FirenzeLocation

Historic Weather in Firenze — Graph


Firenze temperature yesterday

Maximum temperature yesterday: 55 °F (at 2:20 PM)
Minimum temperature yesterday: 34 °F (at 12:20 AM)
Average temperature yesterday: 43 °F

Past Weeks' High & Low Weather Summary

High64 °F (Nov 16, 1:20 PM)100% (Nov 16, 8:20 AM)30.39 "Hg (Nov 16, 8:20 AM)
Low30 °F (Nov 25, 4:50 AM)41% (Nov 27, 11:50 AM)29.15 "Hg (Nov 21, 6:50 PM)
Average50 °F77%29.95 "Hg
* Reported Nov 15 4:20 PM — Nov 30 4:50 PM, Firenze, Weather by CustomWeather, © 2015

Note: Actual official high and low records may vary slightly from our data, if they occured in-between our weather recording intervals... More about our weather records


Firenze weather history for previous 24 hours

Time TempWeatherWind HumidityBarometerVisibility
4:50 PM
Mon, Nov 30
50 °FFog.No wind88%30.30 "Hg3 mi
4:20 PM52 °FFog.1 mph82%30.30 "Hg3 mi
3:50 PM54 °FScattered clouds.2 mph77%30.30 "Hg4 mi
3:20 PM55 °FScattered clouds.No wind77%30.30 "Hg4 mi
2:50 PM54 °FPartly sunny.No wind82%30.33 "Hg4 mi
2:20 PM52 °FFog.No wind88%30.33 "Hg3 mi
1:50 PM52 °FFog.2 mph82%30.33 "Hg3 mi
1:20 PM50 °FPartly sunny.No wind88%30.33 "Hg4 mi
12:50 PM50 °FPartly sunny.No wind88%30.33 "Hg4 mi
12:20 PM48 °FFog.1 mph94%30.36 "Hg3 mi
11:50 AM46 °FFog.3 mph100%30.36 "Hg3 mi
11:20 AM45 °FFog.2 mph100%30.36 "Hg3 mi
10:50 AM43 °FFog.No wind100%30.39 "Hg2 mi
10:20 AM43 °FFog.1 mph100%30.36 "Hg2 mi
9:50 AM41 °FFog.2 mph100%30.36 "Hg2 mi
9:20 AM41 °FFog.No wind100%30.36 "Hg1 mi
8:50 AM39 °FFog.1 mph100%30.36 "Hg1 mi
7:50 AM34 °FFog.No wind100%30.36 "Hg0 mi
7:20 AM36 °FFog.No wind100%30.33 "Hg0 mi
6:20 AM36 °FFog.2 mph100%30.33 "Hg0 mi
5:50 AM34 °FFog.No wind100%30.33 "Hg0 mi
5:20 AM36 °FFog.1 mph100%30.33 "Hg0 mi
4:20 AM37 °FFog.3 mph100%30.30 "Hg2 mi
3:50 AM36 °FLight fog.2 mph100%30.33 "Hg2 mi
3:20 AM36 °FPassing clouds.No wind100%30.33 "Hg2 mi
2:50 AM37 °FPassing clouds.1 mph100%30.33 "Hg2 mi
1:50 AM37 °FLight fog.2 mph93%30.33 "Hg2 mi
1:20 AM37 °FLight fog.No wind100%30.33 "Hg2 mi
12:50 AM37 °FLight fog.1 mph93%30.33 "Hg2 mi
12:20 AM37 °FFog.No wind100%30.33 "Hg2 mi
11:50 PM
Sun, Nov 29
39 °FFog.3 mph100%30.33 "Hg2 mi
11:20 PM39 °FFog.1 mph100%30.30 "Hg2 mi
10:50 PM39 °FFog.No wind100%30.30 "Hg2 mi
10:20 PM39 °FFog.2 mph100%30.30 "Hg3 mi
9:50 PM39 °FFog.2 mph100%30.30 "Hg3 mi
9:20 PM41 °FFog.2 mph100%30.30 "Hg3 mi
8:50 PM41 °FPassing clouds.2 mph93%30.30 "Hg4 mi
8:20 PM43 °FPassing clouds.No wind100%30.30 "Hg4 mi
7:50 PM41 °FPassing clouds.3 mph93%30.30 "Hg5 mi
7:20 PM45 °FPassing clouds.1 mph93%30.27 "Hg5 mi
6:50 PM43 °FPassing clouds.2 mph87%30.27 "Hg5 mi
6:20 PM45 °FPassing clouds.1 mph87%30.27 "Hg5 mi
Weather by CustomWeather, © 2015

See weather overviewHow to use our weather pages